Vertical_Velocity
-2 -3 -2 2 -2 1 5 3 9 -1 -2 2 -5 -4 0 -3 2 -1 -2 -0 -1 -3 -2 -1 -0 -1 -2 1 -4 -1 -3 -4 -2 4 -3 -2 -2 1
-3 -3 -1 -0 -2 1 -4 -2 2 1 -3 0 1 -2 0 -2 -1 -3 -4 0 0 2 1 0 1 1 -0 -3 -3 -2 -1 -4 2 1 0 -4 1 -3
3 -0 -3 -4 2 -2 -0 -0 4 4 2 -3 -2 -2 0 -5 -5 -1 -1 -1 -1 -0 -0 0 -3 2 0 -1 -2 -3 -3 -2 1 2 1 -0 0 -3
-1 1 1 1 -3 0 3 2 0 -2 1 -2 -3 -3 3 -1 -6 -5 -4 -0 -1 -1 -1 -2 -2 -1 1 -1 2 -3 -4 -2 -3 -2 -1 -3 -3 -0
-2 3 1 1 1 0 2 2 2 2 -1 0 -4 -1 -5 -0 -8 -0 -3 -5 -0 2 -1 -5 -2 0 2 2 -1 -3 -4 -2 -3 -3 -1 -0 -1 -0
1 -1 1 -1 1 2 1 1 1 -2 2 1 -1 -5 -0 -3 -0 -4 -11 -3 -11 -5 -1 4 3 -2 -3 -1 -2 1 -1 2 3 3 -0 -2 -3 -1
3 -0 -1 -2 -2 -2 -0 -0 0 0 1 -5 -2 -4 -2 -5 -3 -2 -5 -3 -9 2 -4 -1 -6 -6 1 -2 -2 0 6 -0 -0 0 0 -3 -2 -2
-1 0 -1 -1 0 -0 2 -1 -0 -1 -1 -2 -1 -3 -0 -2 1 -2 -1 -1 -23 1 -6 -12 5 -2 -2 -3 -2 -2 -8 4 2 -4 -1 -2 -2 -3
-2 -1 -1 -1 -0 -1 -0 2 3 3 2 -2 -0 3 -2 2 -0 -4 1 3 -2 -6 3 -17 5 -5 3 -3 1 0 -9 7 -1 -2 -5 -4 -2 -4
1 -1 -1 -0 -0 -1 0 2 2 -0 -2 0 -1 1 -0 -2 1 2 5 -0 -4 -1 6 -15 5 -4 -3 4 3 4 5 -7 -2 -3 -1 -2 -4 -3
1 -1 -1 -1 -0 -0 1 -0 -1 1 -1 -1 -0 -1 -1 1 3 2 -1 -6 -11 -11 8 -1 -4 -7 2 -0 -2 3 2 -2 -4 -3 -3 -4 -2 -1
0 -2 -4 -2 1 2 -0 0 -2 -2 -2 -1 0 1 2 1 2 4 2 -2 0 -16 5 11 -1 11 -9 -6 -2 -2 -3 -3 -3 0 -3 -3 0 4
-1 -1 -2 -2 0 1 2 -1 -2 -2 -1 -2 -3 -2 -2 -1 0 2 3 2 -1 -2 4 21 4 1 3 -7 -6 1 -13 4 2 -5 -4 -1 1 7
-1 1 -2 -1 -0 0 -1 -1 -0 -1 -2 -1 -2 -1 -1 -1 0 0 1 2 3 3 -1 5 3 5 2 -2 -3 -9 -2 7 4 4 3 -2 1 8
1 1 -0 -1 -1 -0 1 -1 -1 -1 -2 -2 -1 -1 2 -1 1 -1 2 2 2 3 1 -1 1 2 2 -2 -1 -8 -5 -5 0 2 12 3 2 8
3 1 2 1 1 1 -0 -0 -1 -1 -1 -1 -1 -0 1 -0 -2 0 -2 -3 -3 -0 7 3 0 1 0 0 -2 -6 -1 -2 2 -6 -0 3 3 7
7 2 0 -0 -0 0 1 -1 -1 -0 -2 -2 -0 0 0 -1 -2 -0 -1 -1 0 -4 -5 -0 -2 -0 1 0 -0 2 -2 -1 4 -4 -1 11 9 13
5 -0 -2 0 -1 0 0 -0 1 -1 -0 -1 0 2 -0 -1 -1 -1 0 1 -1 -1 -2 -2 -5 -4 1 2 2 0 -2 -2 2 2 -2 7 2 6
-2 -2 -1 0 -0 -0 0 0 -1 -1 2 -0 1 1 -0 -0 -1 -2 -0 -0 -1 -0 1 0 -2 -2 -3 -2 0 0 -0 0 -1 3 0 -3 3 6
-1 -0 -1 1 1 -1 0 0 1 -2 -0 1 2 1 0 -2 -2 -0 -0 -1 -2 -2 -2 1 -0 0 -0 -1 -1 3 1 -0 0 -1 -0 -2 -2 -1
2 6 -0 2 2 1 -0 1 0 -3 -1 0 2 2 2 -1 -1 -0 -0 0 -1 -0 -1 -1 -0 1 -0 -0 1 0 1 -0 -0 -2 1 2 0 -1
-0 -1 6 -2 1 2 0 -0 0 -1 -0 -1 2 2 3 1 -1 -2 0 -2 -1 -0 -0 -0 2 4 -0 3 0 0 1 0 0 -2 -0 1 1 1
-1 -0 -0 5 -1 -1 0 -0 -1 -1 -0 1 1 1 2 0 -1 -1 0 -1 -1 -0 -2 -1 -1 2 -2 2 4 2 1 0 0 -0 -2 -0 0 1
Height
1527 1526 1524 1522 1520 1518 1516 1513 1509 1506 1502 1501 1502 1500 1499 1496 1494 1491 1487 1484 1480 1476 1472 1469 1467 1465 1463 1461 1459 1457 1455 1454 1453 1452 1451 1451 1450 1448
1521 1519 1518 1516 1514 1512 1510 1509 1507 1505 1502 1499 1497 1494 1491 1486 1484 1481 1477 1473 1470 1467 1465 1462 1460 1457 1455 1453 1451 1449 1447 1445 1445 1445 1444 1443 1442 1440
1517 1515 1513 1511 1509 1508 1505 1506 1504 1502 1500 1496 1492 1489 1483 1478 1476 1473 1469 1466 1463 1460 1458 1455 1452 1450 1448 1446 1444 1441 1439 1437 1436 1436 1436 1436 1434 1433
1515 1513 1510 1508 1505 1505 1503 1501 1500 1498 1494 1489 1484 1482 1477 1473 1470 1466 1464 1461 1457 1454 1451 1448 1445 1443 1440 1438 1436 1433 1431 1429 1428 1428 1427 1428 1427 1426
1509 1508 1507 1505 1503 1502 1500 1497 1494 1493 1490 1485 1478 1476 1471 1468 1464 1462 1459 1455 1452 1448 1444 1440 1438 1435 1433 1431 1429 1426 1423 1420 1420 1420 1420 1420 1420 1419
1506 1503 1502 1500 1499 1497 1496 1492 1489 1487 1484 1479 1474 1469 1466 1463 1460 1456 1451 1449 1444 1440 1436 1432 1429 1427 1426 1424 1422 1419 1415 1414 1413 1414 1414 1414 1414 1412
1502 1500 1498 1496 1494 1492 1490 1487 1484 1481 1477 1472 1468 1464 1461 1458 1455 1452 1448 1443 1437 1435 1430 1427 1423 1419 1419 1417 1415 1413 1409 1407 1407 1408 1408 1408 1407 1405
1497 1496 1494 1492 1489 1487 1485 1482 1479 1475 1471 1467 1463 1459 1456 1454 1451 1447 1443 1438 1432 1429 1425 1421 1419 1415 1413 1411 1409 1407 1405 1402 1403 1402 1403 1402 1400 1397
1492 1490 1488 1486 1484 1481 1480 1478 1475 1472 1468 1463 1459 1456 1452 1450 1446 1442 1439 1436 1432 1427 1423 1417 1415 1411 1408 1405 1403 1401 1400 1399 1398 1397 1397 1395 1393 1390
1486 1485 1483 1480 1478 1476 1474 1472 1469 1466 1463 1460 1456 1453 1449 1446 1443 1440 1436 1432 1427 1424 1421 1413 1410 1406 1403 1401 1398 1395 1394 1395 1393 1392 1391 1389 1386 1382
1481 1480 1478 1475 1473 1471 1469 1466 1463 1461 1458 1455 1453 1450 1446 1443 1440 1437 1433 1429 1423 1418 1417 1411 1405 1402 1399 1397 1395 1393 1390 1388 1387 1386 1385 1383 1380 1376
1476 1475 1473 1470 1469 1467 1464 1461 1458 1456 1454 1452 1449 1446 1443 1439 1436 1434 1430 1426 1422 1415 1412 1408 1402 1400 1395 1393 1392 1390 1387 1382 1381 1380 1380 1378 1375 1373
1471 1469 1468 1466 1464 1462 1459 1457 1454 1452 1450 1448 1445 1442 1439 1435 1431 1429 1426 1423 1419 1414 1410 1406 1399 1397 1395 1392 1388 1387 1384 1379 1378 1377 1376 1373 1370 1370
1464 1464 1462 1461 1459 1457 1455 1453 1451 1449 1446 1444 1442 1439 1435 1431 1427 1423 1421 1418 1416 1411 1406 1401 1397 1395 1393 1390 1387 1385 1382 1378 1376 1375 1373 1370 1367 1366
1458 1457 1456 1455 1453 1452 1451 1449 1447 1445 1443 1441 1439 1436 1432 1428 1424 1419 1417 1414 1411 1408 1404 1399 1395 1392 1390 1388 1386 1383 1380 1378 1377 1374 1370 1367 1365 1365
1450 1450 1449 1448 1448 1447 1446 1444 1443 1441 1439 1437 1435 1432 1429 1425 1421 1417 1413 1409 1406 1403 1401 1397 1393 1389 1387 1385 1383 1382 1382 1379 1378 1374 1371 1367 1366 1366
1443 1442 1442 1441 1440 1440 1440 1438 1438 1437 1435 1433 1431 1429 1425 1421 1418 1415 1411 1408 1404 1400 1397 1395 1392 1389 1386 1383 1382 1381 1380 1379 1378 1377 1374 1370 1369 1369
1434 1433 1433 1433 1433 1433 1432 1432 1432 1432 1431 1429 1427 1425 1421 1418 1415 1413 1410 1406 1403 1400 1396 1393 1390 1388 1386 1384 1382 1380 1379 1379 1378 1378 1376 1374 1373 1374
1425 1425 1425 1425 1425 1425 1425 1426 1426 1427 1426 1425 1424 1421 1418 1415 1413 1410 1408 1404 1401 1399 1396 1393 1391 1388 1385 1383 1382 1381 1380 1380 1380 1379 1379 1379 1379 1380
1418 1417 1417 1418 1418 1418 1418 1418 1420 1421 1421 1421 1419 1417 1415 1413 1411 1408 1406 1403 1400 1397 1394 1391 1389 1388 1386 1385 1383 1382 1381 1381 1381 1381 1381 1382 1383 1383
1410 1409 1409 1410 1411 1411 1411 1412 1413 1414 1415 1415 1415 1413 1412 1409 1408 1406 1404 1402 1399 1396 1393 1390 1388 1386 1384 1384 1384 1382 1382 1382 1381 1382 1382 1382 1383 1385
1403 1401 1400 1402 1403 1404 1405 1406 1407 1408 1409 1410 1410 1409 1408 1406 1404 1403 1402 1400 1398 1395 1392 1390 1388 1386 1384 1383 1383 1383 1383 1383 1384 1384 1383 1384 1385 1386
1394 1393 1392 1393 1395 1396 1397 1399 1400 1401 1403 1404 1405 1405 1404 1402 1401 1400 1399 1398 1396 1395 1392 1390 1389 1387 1386 1385 1384 1384 1384 1385 1385 1385 1386 1386 1387 1387